PROFILE

 METAR AND TAF INFORMATION
ADDS - METARS form results

(0700 UTC 17 October 2021)
http://aviationweather.gov/metar/data/
 
LFLL 170630Z 00000KT 0900 0400NW R35L/0700D R17R/0325N R35R/0450D R17L/0600N FG SCT001 02/02 Q1020 TEMPO 0500 FG VV///
TAF LFLL 170500Z 1706/1812 VRB03KT 3000 BR SCT003 TEMPO 1706/1709 0350 FG VV/// BECMG 1709/1712 6000 NSW OVC006 BECMG 1712/1714 CAVOK TEMPO 1802/1809 0800 FG VV/// 

 AIRPORT MAP

 RUNWAY INFORMATION
Runway 18L Runway length 8760 ft Runway width 148 ft
Runway elevation 780 ft Runway displaced threshold 0 ft Runway heading 175
Runway 36R Runway length 8760 ft Runway width 148 ft
Runway elevation 821 ft Runway displaced threshold 0 ft Runway heading 355
Runway 18R Runway length 13124 ft Runway width 148 ft
Runway elevation 758 ft Runway displaced threshold 0 ft Runway heading 175
Runway 36L Runway length 13124 ft Runway width 148 ft
Runway elevation 813 ft Runway displaced threshold 0 ft Runway heading 355

 AIRPORT FREQUENCIES
Type A/D Name Lyon appro Frequency 136.075 MHZ
Type ATIS Name ATIS Frequency 126.175 MHZ
Type GND Name GND Frequency 121.825 MHZ
Type INFO Name INFO Frequency 135.2 MHZ
Type PFLT Name PREFLIGHT Frequency 121.7 MHZ
Type TWR Name TWR Frequency 120.45 MHZ

 AIRPORT NEAR NAVIGATION AIDS
Type VOR-DME Name Lyon/Saint Exupery Frequency 114750 KHZ